This is the latest recevied weather packets stored in our database for station/object KE8WAY. If no packets are shown the sender has not sent any weather packets the latest 10 day(s).
| Time | Temp. | Humidity | Pressure | Rain* | Wind** | Luminosity | Snow |
|---|---|---|---|---|---|---|---|
| 1778186636 | 13.89° C | 33% | 1011.2 hPa | 0 mm | - | 144 W/m² | - |
| 1778186333 | 14.44° C | 32% | 1011.3 hPa | 0 mm | - | 519 W/m² | - |
| 1778186031 | 14.44° C | 33% | 1011.3 hPa | 0 mm | - | 238 W/m² | - |
| 1778185727 | 14.44° C | 33% | 1011.3 hPa | 0 mm | - | 166 W/m² | - |
| 1778185424 | 14.44° C | 34% | 1011.4 hPa | 0 mm | - | 581 W/m² | - |
| 1778185119 | 13.89° C | 35% | 1011.4 hPa | 0 mm | - | 205 W/m² | - |
| 1778184815 | 13.89° C | 35% | 1011.5 hPa | 0 mm | - | 708 W/m² | - |
| 1778184511 | 14.44° C | 34% | 1011.4 hPa | 0 mm | - | 591 W/m² | - |
| 1778184208 | 13.89° C | 37% | 1011.5 hPa | 0 mm | - | 757 W/m² | - |
| 1778183904 | 13.33° C | 37% | 1011.4 hPa | 0 mm | - | 198 W/m² | - |
| 1778183601 | 13.33° C | 38% | 1011.5 hPa | 0 mm | - | 219 W/m² | - |
| 1778183298 | 13.33° C | 36% | 1011.7 hPa | 0 mm | - | 242 W/m² | - |
| 1778182994 | 13.33° C | 37% | 1011.6 hPa | 0 mm | - | 206 W/m² | - |
| 1778182691 | 13.89° C | 36% | 1011.6 hPa | 0 mm | - | 228 W/m² | - |
| 1778182389 | 13.89° C | 35% | 1011.7 hPa | 0 mm | - | 240 W/m² | - |
| 1778182084 | 13.89° C | 33% | 1011.6 hPa | 0 mm | - | 647 W/m² | - |
| 1778181781 | 13.33° C | 36% | 1011.6 hPa | 0 mm | - | 281 W/m² | - |
| 1778181477 | 13.33° C | 37% | 1011.7 hPa | 0 mm | - | 192 W/m² | - |
| 1778181174 | 13.89° C | 35% | 1011.8 hPa | 0 mm | - | 252 W/m² | - |
| 1778180870 | 14.44° C | 34% | 1011.6 hPa | 0 mm | - | 784 W/m² | - |
| 1778180569 | 13.89° C | 35% | 1011.6 hPa | 0 mm | - | 742 W/m² | - |
| 1778180268 | 13.89° C | 35% | 1011.7 hPa | 0 mm | - | 751 W/m² | - |
| 1778179964 | 13.89° C | 34% | 1011.9 hPa | 0 mm | - | 734 W/m² | - |
| 1778179662 | 14.44° C | 35% | 1011.7 hPa | 0 mm | - | 478 W/m² | - |
| 1778179359 | 13.89° C | 34% | 1011.9 hPa | 0 mm | - | 798 W/m² | - |
* Rain latest hour (hover to see other rain measurements)
** Current wind speed in m/s (hover to see current wind gust speed)